Regional Weather Roundup
Issued by NWS

Current Version | Previous Version | Text Only | Print | Product List | Glossary On
Versions: 1 2 3 4 5 6 7 8 9 10 11 12 13 14 15 16 17 18 19 20 21 22 23 24 25 26 27 28 29 30 31 32 33 34 35 36 37 38 39 40 41 42 43 44 45 46 47 48 49 50
000
ASCA44 KEWX 232120
RWRMX

LATIN AMERICA AND CARIBBEAN REGIONAL WEATHER ROUNDUP
NATIONAL WEATHER SERVICE AUSTIN/SAN ANTONIO TX
400 PM CDT THU MAR 23 2017

NOTE: "FAIR" INDICATED FEW OR NO CLOUDS BELOW 12,000 FEET WITH NO
SIGNIFICANT WEATHER AND/OR OBSTRUCTIONS TO VISIBILITY.

BAJA CALIFORNIA

CITY           SKY/WX    TMP DP  RH WIND       PRES   REMARKS
LORETO         MOSUNNY   75  64  69 N29       29.99F
LA PAZ         PTSUNNY   77  59  53 N20       30.01F
MEXICALI       SUNNY     72  30  21 W15       30.03F
S.J. DEL CABO  PTSUNNY   81  55  41 E8        29.98F
TIJUANA        PTSUNNY   61  45  55 W7        30.19S

NORTHWESTERN MEXICO

CITY           SKY/WX    TMP DP  RH WIND       PRES   REMARKS
CULIACAN       PTSUNNY   86  59  39 CALM      29.90F
DURANGO        PTSUNNY   82  16   8 W3        30.11F
GUAYMAS        MOSUNNY   75  54  46 W14       29.95F
HERMOSILLO     SUNNY     79  39  24 NW10      30.02F
CD. JUAREZ     BLWGDUST  77  28  16 W29G46    29.70S VSB 3/4
LOS MOCHIS     PTSUNNY   79  45  29 N22       29.98F
OBREGON        MOSUNNY   82  39  21 W15       29.94F

NORTHEASTERN MEXICO

CITY           SKY/WX    TMP DP  RH WIND       PRES   REMARKS
CHIHUAHUA      MOSUNNY   90  23   9 SW26G48   29.87F
MATAMOROS      PTSUNNY   82  63  51 SE14G30   30.01F
MONCLOVA       MOSUNNY   86  54  32 N12       29.87F
MONTERREY      MOSUNNY   82  52  34 SE20G31   29.90F
NUEVO LAREDO   MOSUNNY   88  57  35 SE25      29.89F
PIEDRAS NEGRAS MOSUNNY   82  63  51 SE17G25   29.90F
REYNOSA        MOSUNNY   81  59  47 SE17G29   29.95F
SALTILLO       MOSUNNY   79  54  41 NE12      30.04F
TORREON        PTSUNNY   91  39  16 N12       29.91F
CD. VICTORIA   SUNNY     84  55  37 SE16G29   29.95F

WESTERN MEXICO

CITY           SKY/WX    TMP DP  RH WIND       PRES   REMARKS
AGUASCALIENTES MOSUNNY   82  21  10 SW10      30.17F
COLIMA         MOSUNNY   82  70  65 W12       30.00F
DEL BAJIO      MOSUNNY   84  30  14 CALM      30.20F
GUADALAJARA    PTSUNNY   88  28  11 N8        30.08F
MANZANILLO     MOSUNNY   82  73  74 SW9       29.89F
MAZATLAN       CLOUDY    79  68  69 W8        29.97F
P. VALLARTA    MOSUNNY   79  70  73 S15       29.92F
URUAPAN        SUNNY     77  50  38 S9        30.16F
ZACATECAS      MOSUNNY   82  27  13 S12G24    30.19F

CENTRAL MEXICO

CITY           SKY/WX    TMP DP  RH WIND       PRES   REMARKS
CUERNAVACA       N/A    N/A N/A N/A MISG        N/A
MEXICO CITY    SUNNY     79   7   6 W8        30.23F
MORELIA        MOSUNNY   84  27  12 VRB2      30.17F
POZA RICA      MOSUNNY   86  68  54 SE12      30.03F
PUEBLA         SUNNY     75  21  13 S14       30.25F
QUERETARO      SUNNY     81  28  15 NE6       30.22F
S. LUIS POTOSI MOSUNNY   82  34  17 N10       30.15F
TAMPICO        MOSUNNY   81  68  65 SW22      30.01F
TOLUCA         SUNNY     75  18  11 W7        30.31F

SOUTHERN MEXICO

CITY           SKY/WX    TMP DP  RH WIND       PRES   REMARKS
ACAPULCO       SUNNY     88  70  55 SW8       29.90F HX  92
B. DE HUATULCO   N/A    N/A N/A N/A MISG        N/A
OAXACA         MOSUNNY   79  23  12 S6        30.17F
P. ESCONDIDO   SUNNY     82  72  69 S12       30.01S
VERACRUZ       SUNNY     82  66  57 E12       30.00F
ZIHUATANEJO    SUNNY     86  73  66 SW9       29.92F HX  93

YUCATAN PENINSULA

CITY           SKY/WX    TMP DP  RH WIND       PRES   REMARKS
CAMPECHE       MOSUNNY   81  70  69 N12G23    29.99F
CANCUN         MOSUNNY   79  63  57 E8        30.10S
CHETUMAL       MOSUNNY   84  63  48 SE12      30.04F
CD. DEL CARMEN SUNNY     82  70  65 N14       29.99F
COZUMEL        MOSUNNY   81  66  61 E14       30.07F
MERIDA         MOSUNNY   91  59  33 N12       30.02F HX  90
MINATITLAN     SUNNY     81  68  65 N17       29.99F
TAPACHULA      MOSUNNY   90  70  51 SW9       29.88F HX  95
TUX. GUTIERREZ MOSUNNY   91  46  21 W7        29.92F
VILLAHERMOSA   MOSUNNY   88  66  48 NE12      29.99F HX  90

CENTRAL AMERICA

CITY           SKY/WX    TMP DP  RH WIND       PRES   REMARKS
BELIZE CITY    MOSUNNY   84  66  54 E12       30.04F
MANAGUA        PTCLDY    95  68  41 NE12      29.83F HX  99

CARIBBEAN

CITY           SKY/WX    TMP DP  RH WIND       PRES   REMARKS
ARUBA          MOSUNNY   82  75  78 E18       29.83S
CURACAO        MOSUNNY   82  73  74 E13       29.86S
KINGSTON       MOSUNNY   86  70  58 W12       29.92S HX  90
NASSAU         MOSUNNY   82  55  39 N9        30.14F
SAN JUAN       RAIN      73  73 100 NW5       29.95  FOG
SANTO DOMINGO  MOSUNNY   84  73  70 E9        29.89S HX  91
ST. CROIX      MOSUNNY   82  72  69 SE7       29.94
ST. KITTS      MOSUNNY   81  72  74 E13       29.94S
ST. MAARTEN    MOSUNNY   81  75  83 SE12      29.94S
ST. THOMAS     PTSUNNY   81  73  78 SE9       29.93

$$





USA.gov is the U.S. government's official web portal to all federal, state and local government web resources and services.